TimeEST,TemperatureF,Dew PointF,Humidity,Sea Level PressureIn,VisibilityMPH,Wind Direction,Wind SpeedMPH,Gust SpeedMPH,PrecipitationIn,Events,Conditions,WindDirDegrees,DateUTC
12:15 AM,36.9,32.0,83,30.22,10.0,ESE,5.8,-,N/A,,Overcast,110,2012-12-04 05:15:00
12:35 AM,36.9,32.2,83,30.21,10.0,SE,5.8,-,N/A,,Overcast,130,2012-12-04 05:35:00
12:55 AM,36.9,32.2,83,30.21,10.0,SSE,4.6,-,N/A,,Overcast,150,2012-12-04 05:55:00
1:15 AM,36.9,32.2,83,30.20,10.0,SE,5.8,-,N/A,,Overcast,130,2012-12-04 06:15:00
1:35 AM,36.1,32.0,85,30.20,10.0,SSE,4.6,-,N/A,,Overcast,160,2012-12-04 06:35:00
1:55 AM,34.7,31.5,88,30.20,10.0,SE,4.6,-,N/A,,Overcast,140,2012-12-04 06:55:00
2:15 AM,34.3,31.8,90,30.20,10.0,Calm,Calm,-,N/A,,Mostly Cloudy,0,2012-12-04 07:15:00
2:35 AM,34.3,31.6,90,30.20,10.0,Calm,Calm,-,N/A,,Scattered Clouds,0,2012-12-04 07:35:00
2:55 AM,34.3,31.8,90,30.20,10.0,SSE,3.5,-,N/A,,Clear,150,2012-12-04 07:55:00
3:15 AM,32.9,30.7,92,30.18,10.0,SE,3.5,-,N/A,,Clear,140,2012-12-04 08:15:00
3:35 AM,34.3,32.0,91,30.16,10.0,SE,5.8,-,N/A,,Clear,130,2012-12-04 08:35:00
3:55 AM,35.2,32.9,91,30.16,10.0,SSE,3.5,-,N/A,,Clear,160,2012-12-04 08:55:00
4:15 AM,34.2,31.3,89,30.15,10.0,SE,5.8,-,N/A,,Clear,140,2012-12-04 09:15:00
4:35 AM,34.3,32.2,92,30.14,10.0,SSE,6.9,-,N/A,,Clear,150,2012-12-04 09:35:00
4:55 AM,36.1,34.2,93,30.14,10.0,SSE,3.5,-,N/A,,Clear,160,2012-12-04 09:55:00
5:15 AM,36.9,34.3,91,30.12,10.0,South,9.2,-,N/A,,Clear,170,2012-12-04 10:15:00
5:35 AM,36.9,33.1,86,30.12,10.0,SSE,4.6,-,N/A,,Clear,160,2012-12-04 10:35:00
5:55 AM,38.5,34.9,87,30.12,10.0,South,6.9,-,N/A,,Clear,180,2012-12-04 10:55:00
6:15 AM,39.4,34.7,83,30.11,10.0,South,5.8,-,N/A,,Clear,170,2012-12-04 11:15:00
6:35 AM,38.3,34.0,84,30.10,10.0,SSE,9.2,-,N/A,,Clear,160,2012-12-04 11:35:00
6:55 AM,37.0,33.8,88,30.10,10.0,South,5.8,-,N/A,,Clear,170,2012-12-04 11:55:00
7:15 AM,40.3,35.4,83,30.10,10.0,SSW,6.9,-,N/A,,Scattered Clouds,200,2012-12-04 12:15:00
7:35 AM,40.6,35.6,82,30.09,10.0,South,10.4,17.3,N/A,,Mostly Cloudy,180,2012-12-04 12:35:00
7:55 AM,44.1,37.9,79,30.09,10.0,South,8.1,-,N/A,,Mostly Cloudy,180,2012-12-04 12:55:00
8:15 AM,45.9,39.0,77,30.08,10.0,SSE,11.5,16.1,N/A,,Overcast,160,2012-12-04 13:15:00
8:35 AM,46.8,39.2,75,30.08,10.0,South,13.8,21.9,N/A,,Overcast,180,2012-12-04 13:35:00
8:55 AM,46.8,39.2,75,30.08,10.0,South,10.4,20.7,N/A,,Drizzle,180,2012-12-04 13:55:00
9:15 AM,46.8,40.5,79,30.08,10.0,South,12.7,18.4,N/A,,Light Drizzle,190,2012-12-04 14:15:00
9:35 AM,46.8,40.5,79,30.07,10.0,South,12.7,20.7,N/A,,Light Drizzle,180,2012-12-04 14:35:00
9:55 AM,46.8,42.4,85,30.06,7.0,South,9.2,19.6,N/A,Rain,Light Rain,180,2012-12-04 14:55:00
10:15 AM,47.7,42.4,82,30.06,10.0,South,11.5,20.7,N/A,,Overcast,180,2012-12-04 15:15:00
10:35 AM,51.4,45.0,79,30.06,10.0,SSW,9.2,20.7,N/A,,Mostly Cloudy,200,2012-12-04 15:35:00
10:55 AM,51.8,44.1,75,30.04,10.0,South,9.2,23.0,N/A,,Scattered Clouds,180,2012-12-04 15:55:00
11:15 AM,51.8,43.5,73,30.03,10.0,South,16.1,26.5,N/A,,Clear,170,2012-12-04 16:15:00
11:35 AM,52.0,43.9,74,30.02,10.0,South,10.4,23.0,N/A,,Scattered Clouds,190,2012-12-04 16:35:00
11:55 AM,54.5,44.8,70,30.01,10.0,South,11.5,19.6,N/A,,Clear,190,2012-12-04 16:55:00
12:15 PM,54.5,44.8,70,30.00,10.0,South,11.5,18.4,N/A,,Clear,190,2012-12-04 17:15:00
12:35 PM,54.5,45.0,70,29.99,10.0,South,11.5,21.9,N/A,,Clear,190,2012-12-04 17:35:00
12:55 PM,56.8,46.8,69,29.99,10.0,South,12.7,23.0,N/A,,Clear,190,2012-12-04 17:55:00
1:35 PM,54.5,44.8,70,29.97,10.0,South,10.4,24.2,N/A,,Clear,170,2012-12-04 18:35:00
1:55 PM,56.8,46.8,69,29.96,10.0,South,10.4,23.0,N/A,,Clear,190,2012-12-04 18:55:00
2:15 PM,54.5,45.3,71,29.95,10.0,South,13.8,23.0,N/A,,Clear,180,2012-12-04 19:15:00
2:35 PM,54.5,46.0,73,29.94,10.0,South,13.8,23.0,N/A,,Clear,180,2012-12-04 19:35:00
2:55 PM,54.5,46.8,75,29.94,10.0,South,12.7,20.7,N/A,,Clear,180,2012-12-04 19:55:00
3:15 PM,54.1,47.1,77,29.93,10.0,South,11.5,20.7,N/A,,Clear,180,2012-12-04 20:15:00
3:35 PM,53.8,46.9,78,29.92,10.0,South,12.7,19.6,N/A,,Clear,170,2012-12-04 20:35:00
3:55 PM,54.5,47.5,77,29.91,10.0,South,13.8,21.9,N/A,,Clear,180,2012-12-04 20:55:00
4:15 PM,54.5,47.8,78,29.91,10.0,South,15.0,23.0,N/A,,Clear,180,2012-12-04 21:15:00
4:35 PM,54.5,47.8,78,29.91,10.0,South,12.7,20.7,N/A,,Clear,180,2012-12-04 21:35:00
4:55 PM,54.1,48.0,80,29.90,10.0,South,13.8,29.9,N/A,,Clear,170,2012-12-04 21:55:00
5:15 PM,52.9,47.5,82,29.90,10.0,South,13.8,21.9,N/A,,Scattered Clouds,180,2012-12-04 22:15:00
5:35 PM,53.2,48.0,82,29.89,10.0,South,17.3,26.5,N/A,,Scattered Clouds,180,2012-12-04 22:35:00
5:55 PM,54.5,48.6,80,29.88,10.0,South,17.3,27.6,N/A,,Scattered Clouds,170,2012-12-04 22:55:00
6:15 PM,54.5,48.2,79,29.86,10.0,South,18.4,29.9,N/A,,Scattered Clouds,170,2012-12-04 23:15:00
6:35 PM,54.5,48.2,79,29.86,10.0,South,10.4,20.7,N/A,,Scattered Clouds,180,2012-12-04 23:35:00
6:55 PM,54.5,48.2,79,29.86,10.0,South,15.0,24.2,N/A,,Clear,170,2012-12-04 23:55:00
7:15 PM,54.5,48.2,79,29.84,10.0,South,11.5,26.5,N/A,,Mostly Cloudy,180,2012-12-05 00:15:00
7:35 PM,54.5,48.2,79,29.83,10.0,South,13.8,24.2,N/A,,Scattered Clouds,180,2012-12-05 00:35:00
7:55 PM,54.5,48.2,79,29.83,10.0,South,16.1,24.2,N/A,,Scattered Clouds,190,2012-12-05 00:55:00
8:15 PM,54.5,48.2,79,29.82,10.0,South,12.7,23.0,N/A,,Scattered Clouds,180,2012-12-05 01:15:00
8:35 PM,54.5,47.8,78,29.82,10.0,South,12.7,20.7,N/A,,Mostly Cloudy,190,2012-12-05 01:35:00
8:55 PM,54.5,47.8,78,29.82,10.0,South,12.7,21.9,N/A,,Overcast,180,2012-12-05 01:55:00
9:15 PM,54.5,47.8,78,29.83,10.0,South,11.5,18.4,N/A,,Overcast,190,2012-12-05 02:15:00
9:35 PM,54.5,48.0,79,29.82,10.0,South,9.2,19.6,N/A,Rain,Rain,190,2012-12-05 02:35:00
9:55 PM,54.3,48.7,81,29.82,10.0,SSW,6.9,16.1,N/A,Rain,Light Rain,200,2012-12-05 02:55:00
10:15 PM,54.5,48.9,81,29.81,10.0,SSW,8.1,-,N/A,,Overcast,200,2012-12-05 03:15:00
10:35 PM,54.5,48.7,81,29.82,7.0,WSW,6.9,-,N/A,,Overcast,240,2012-12-05 03:35:00
10:55 PM,51.8,48.4,88,29.84,2.5,West,8.1,-,N/A,Rain,Rain,260,2012-12-05 03:55:00
11:15 PM,49.8,47.5,92,29.85,2.0,West,6.9,-,N/A,Rain,Light Rain,280,2012-12-05 04:15:00
11:35 PM,48.0,45.7,92,29.85,5.0,NW,4.6,-,N/A,Rain,Light Rain,310,2012-12-05 04:35:00
11:55 PM,46.9,44.8,92,29.85,5.0,WNW,3.5,-,N/A,,Drizzle,300,2012-12-05 04:55:00